SCP
0 0 0 0 0 0 0 0 0 0 0 0 0 0 0 0 0 0 0 0 0 0 0 0 0 0 0 0 0 0 1 1 1 1 1 1 1 1
0 0 0 0 0 0 0 0 0 0 0 0 0 0 0 0 0 0 0 0 0 0 0 0 0 0 0 0 0 0 0 1 1 1 1 1 1 1
0 0 0 0 0 0 0 0 0 0 0 0 0 0 0 0 0 0 0 0 0 0 0 0 0 0 0 0 0 0 0 0 0 0 1 1 1 1
0 0 0 0 0 0 0 0 0 0 0 0 0 0 0 0 0 0 0 0 0 0 0 0 0 0 0 0 0 0 0 0 0 0 0 0 1 1
0 0 0 0 0 0 0 0 0 0 0 0 0 0 0 0 0 0 0 0 0 0 0 0 0 0 0 0 0 0 0 0 0 0 0 0 0 0
0 0 0 0 0 0 0 0 0 0 0 0 0 0 0 0 0 0 0 0 0 1 0 0 0 0 0 0 0 0 0 0 0 0 0 0 0 0
0 0 0 0 0 0 0 0 0 0 0 0 0 0 0 0 0 0 0 0 0 0 0 0 0 0 0 0 0 0 0 0 0 0 0 0 0 0
0 0 0 0 0 0 0 0 0 0 0 0 0 0 0 0 0 0 0 0 0 0 0 0 0 0 0 0 0 0 0 0 0 0 0 0 0 0
0 0 0 0 0 0 0 0 0 0 0 0 0 0 0 0 0 0 0 0 0 0 0 0 0 0 0 0 0 0 0 0 0 0 0 0 0 0
0 0 0 0 0 0 0 0 0 0 0 0 0 0 0 0 0 0 0 0 0 0 0 0 0 0 0 0 0 0 0 0 0 0 0 0 0 0
0 0 0 0 0 0 0 0 0 0 0 0 0 0 0 0 0 0 0 0 0 0 0 0 0 0 0 0 0 0 0 0 0 0 0 0 0 0
0 0 0 0 0 0 0 0 0 0 0 0 0 0 0 0 0 0 0 0 0 0 0 0 0 0 0 0 0 0 0 0 0 0 0 0 0 0
0 0 0 0 0 0 0 0 0 0 0 0 0 0 0 0 0 0 0 0 0 0 0 0 0 0 0 0 0 0 0 0 0 0 0 0 0 0
0 0 0 0 0 0 0 0 0 0 0 0 0 0 0 0 0 0 0 0 0 0 0 0 0 0 0 0 0 0 0 0 0 0 0 0 0 0
0 0 0 0 0 0 0 0 0 0 0 0 0 0 0 0 0 0 0 0 0 0 0 0 0 0 0 0 0 0 0 0 0 0 0 0 0 0
0 0 0 0 0 0 0 0 0 0 0 0 0 0 0 0 0 0 0 0 0 0 0 0 0 0 0 0 0 0 0 0 0 0 0 0 0 0
0 0 0 0 0 0 0 0 0 0 0 0 0 0 0 0 0 0 0 0 0 0 0 0 0 0 0 0 0 0 0 0 0 0 0 0 0 0
0 0 0 0 0 0 0 0 0 0 0 0 0 0 0 0 0 0 0 0 0 0 0 0 0 0 0 0 0 0 0 0 0 0 0 0 0 0
0 0 0 0 0 0 0 0 0 0 0 0 0 0 0 0 0 0 0 0 0 0 0 0 0 0 0 0 0 0 0 0 0 0 0 0 0 0
0 0 0 0 0 0 0 0 0 0 0 0 0 0 0 0 0 0 0 0 0 0 0 0 0 0 0 0 0 0 0 0 0 0 0 0 0 0
0 0 0 0 0 0 0 0 0 0 0 0 0 0 0 0 0 0 0 0 0 0 0 0 0 0 0 0 0 0 0 0 0 0 0 0 0 0
0 0 0 0 0 0 0 0 0 0 0 0 0 0 0 0 0 0 0 0 0 0 0 0 0 0 0 0 0 0 0 0 0 0 0 0 0 0
0 0 0 0 0 0 0 0 0 0 0 0 0 0 0 0 0 0 0 0 0 0 0 0 0 0 0 0 0 0 0 0 0 0 0 0 0 0
Wind_Speed
4 4 3 2 2 2 2 2 3 1 2 3 3 4 4 3 5 4 4 6 7 7 8 9 9 9 9 9 9 8 7 7 6 5 4 2 1 1
3 4 4 3 3 3 2 2 2 2 1 2 2 3 4 5 7 5 5 7 7 7 7 8 8 8 9 9 8 8 8 7 7 6 5 3 2 1
4 5 4 4 3 3 3 3 2 2 2 2 2 3 4 5 6 5 4 4 4 7 7 7 7 7 8 8 7 7 7 7 7 6 5 4 3 3
4 4 4 4 4 3 3 3 2 2 2 1 2 3 3 4 5 5 5 5 4 7 8 7 7 7 7 7 7 6 6 6 6 6 6 5 4 4
3 4 3 4 4 3 3 3 3 3 2 2 2 2 2 4 4 5 5 4 5 6 8 8 8 7 7 7 6 6 6 5 5 5 6 6 6 6
3 3 3 3 3 2 3 3 3 3 3 2 2 2 2 3 3 4 5 4 4 5 6 6 7 9 8 8 7 7 7 6 6 6 6 6 7 7
4 3 3 4 5 4 3 2 3 2 2 2 2 2 3 3 3 3 3 4 3 3 4 4 4 4 5 7 7 8 8 8 7 7 7 7 8 9
3 3 3 4 6 7 7 5 4 3 2 1 1 1 3 2 2 2 2 3 4 4 3 4 3 3 4 3 6 9 9 9 9 9 9 9 9 10
3 2 3 4 4 3 5 7 6 5 3 2 1 1 2 2 2 3 2 2 3 4 2 3 3 3 4 4 8 8 9 10 10 10 10 10 10 10
2 2 2 2 2 2 3 4 3 3 2 1 1 2 2 2 1 1 2 2 3 3 1 2 3 3 4 4 7 8 9 9 10 10 11 11 11 11
1 1 1 1 3 4 3 2 3 3 4 4 4 4 5 5 3 2 2 2 3 4 2 1 3 4 4 4 5 7 9 9 10 10 10 10 11 10
1 1 2 2 3 3 2 1 2 3 4 5 5 6 5 5 6 1 1 1 2 3 3 1 3 3 4 3 3 4 5 7 9 9 10 11 10 6
0 1 1 3 3 3 1 1 1 2 2 2 3 4 4 4 4 3 1 2 2 3 3 1 2 2 2 4 4 3 3 4 4 5 7 10 11 7
1 1 1 3 3 4 2 2 3 3 1 2 2 3 3 4 4 4 3 3 3 4 4 2 2 2 3 4 5 4 4 4 4 4 4 7 8 10
1 2 1 2 3 3 4 4 3 1 1 1 2 3 3 4 4 3 4 4 4 4 4 2 3 3 2 4 5 5 5 4 3 4 4 5 5 5
0 1 2 2 2 2 3 3 1 1 1 2 2 3 3 3 3 3 3 3 3 4 4 4 3 3 4 5 5 6 4 4 4 4 5 5 4 4
1 1 1 1 2 2 2 2 2 2 1 2 2 3 3 3 3 3 2 2 2 4 5 4 4 3 4 5 5 5 5 5 5 5 5 6 6 5
3 1 1 1 2 2 2 2 2 2 2 2 2 3 3 3 4 3 2 2 3 4 5 4 4 5 4 4 5 5 5 5 5 5 4 6 8 6
2 2 2 2 3 2 2 2 3 3 2 2 2 3 3 3 3 3 3 3 4 4 4 4 3 3 6 8 6 4 5 6 5 5 5 5 8 8
2 3 3 3 3 3 3 3 3 3 2 2 3 3 3 3 3 3 3 4 4 5 5 4 3 4 6 8 8 6 6 6 5 7 7 6 7 9
3 3 3 3 3 3 3 3 3 3 3 3 3 4 3 3 4 4 4 6 6 5 6 6 6 8 5 4 6 6 5 7 8 7 7 7 8 7
3 3 3 3 3 3 3 3 3 3 4 4 4 4 4 4 5 5 5 5 5 5 7 6 5 4 3 5 8 9 8 7 7 11 11 10 7 8
4 4 3 3 3 3 3 3 4 4 4 4 4 4 4 4 4 5 5 5 6 6 6 6 5 4 5 6 7 8 9 9 7 6 6 10 14 16
Wind_Direction
60 59 55 34 43 48 69 110 128 96 348 331 341 339 347 1 1 2 358 2 11 17 18 19 20 19 22 27 31 33 33 36 43 50 57 58 52 267
59 61 48 32 37 38 51 54 88 131 131 312 322 326 345 4 6 2 360 6 10 12 15 18 19 21 21 23 30 35 36 35 36 36 36 37 41 22
53 62 49 40 45 35 38 46 50 88 114 317 326 340 3 3 355 353 0 3 357 3 8 13 17 17 16 18 22 29 32 27 24 21 17 9 358 343
59 59 43 46 45 37 43 44 42 54 106 29 341 349 357 353 353 356 2 5 353 6 9 8 9 12 13 15 18 19 18 17 13 6 357 347 336 325
71 70 52 58 52 42 50 47 37 43 54 78 354 345 344 352 356 353 358 353 356 5 7 7 5 4 6 5 5 5 2 355 349 343 340 335 329 319
65 68 62 71 77 69 60 50 50 48 43 48 18 352 345 339 360 356 352 347 344 357 3 3 2 3 360 357 354 354 349 342 336 331 324 320 318 314
50 47 51 61 67 72 75 71 68 59 46 41 18 2 349 352 350 336 339 326 330 351 350 353 355 355 352 351 351 348 343 340 336 331 324 318 314 311
61 39 42 46 50 53 58 65 77 88 82 63 23 355 320 315 320 337 338 351 334 334 350 334 352 342 335 346 352 354 352 347 343 337 332 326 321 316
84 61 47 42 44 45 44 44 44 54 78 127 131 277 290 300 329 339 333 314 285 300 341 321 330 324 318 335 342 346 348 346 341 336 333 330 325 320
98 99 80 26 31 51 51 39 27 20 22 54 196 262 275 275 259 281 277 299 297 309 356 313 314 305 311 314 329 340 340 336 334 336 338 337 332 327
59 79 81 53 30 50 65 45 12 349 359 7 349 336 334 337 344 3 355 3 326 310 324 305 305 306 302 301 319 330 327 324 324 328 332 331 327 324
31 16 26 29 23 43 80 77 12 328 341 348 350 348 346 345 349 334 269 298 300 301 302 314 309 328 317 297 302 313 314 311 313 315 321 324 324 321
83 335 324 358 14 24 48 139 279 319 341 345 338 337 340 339 331 321 282 232 248 267 282 290 299 307 286 298 303 298 303 305 308 307 312 317 316 313
192 249 286 348 14 16 15 349 346 2 11 353 343 332 329 323 315 313 307 283 255 258 277 265 266 275 288 296 297 301 302 297 298 301 306 311 309 307
207 236 315 2 5 360 358 357 358 15 7 340 316 303 295 296 306 315 320 311 303 296 303 285 273 275 261 272 285 293 302 299 292 301 302 301 297 304
172 13 15 17 7 336 344 346 335 285 272 270 286 292 304 315 317 314 312 320 318 308 306 304 292 278 277 276 275 285 285 285 297 297 293 289 286 283
143 59 26 7 356 341 334 325 322 332 317 302 299 306 309 311 306 304 301 307 306 305 312 314 305 288 269 270 281 281 286 290 289 298 304 300 292 286
133 149 241 255 260 272 286 299 299 291 284 287 293 293 297 299 300 302 302 299 295 294 299 306 318 324 318 288 247 273 285 287 292 293 291 294 295 294
155 210 231 242 251 257 261 262 269 273 272 279 285 290 292 296 296 297 299 297 292 288 289 295 306 310 309 305 289 250 276 290 294 292 285 282 287 291
204 220 235 242 246 250 254 256 262 275 273 273 275 282 286 289 289 285 285 284 286 288 290 287 278 272 274 284 288 287 273 274 283 287 288 286 281 282
226 232 237 240 244 246 251 254 255 261 265 268 273 276 278 278 282 279 280 284 282 281 283 280 272 277 275 283 289 289 281 271 271 277 287 294 298 296
230 233 240 241 242 244 249 253 260 265 271 270 272 274 274 272 276 279 278 280 278 276 277 280 284 285 273 275 283 290 293 294 286 281 275 273 281 287
232 236 240 243 243 244 247 252 255 261 262 265 269 273 273 274 273 272 273 274 278 282 285 288 288 278 272 272 279 285 290 296 298 295 283 281 278 277